Weather History for Wadena, MN

Change the Weather History Date:

Wednesday, January 23, 2013

  Actual Average Record
Temperature  
Mean Temperature -8 °F -  
Max Temperature 1 °F 20 °F 58 °F (1942)
Min Temperature -16 °F -1 °F -42 °F (1935)
Degree Days  
Heating Degree Days 72    
Moisture  
Dew Point -15 °F    
Average Humidity 65    
Maximum Humidity 92    
Minimum Humidity 54    
Precipitation  
Precipitation 0.00 in - - ()
Sea Level Pressure  
Sea Level Pressure 30.31 in    
Wind  
Wind Speed 11 mph (NW)    
Max Wind Speed 24 mph    
Max Gust Speed 30 mph    
Visibility 9 miles    
Events      
Averages and records for this station are not official NWS values.
T = Trace of Precipitation, MM = Missing Value Source: NWS Daily Summary

Daily Weather History Graph

Daily Weather History Graph

Search for Another Location

Airport:

Trip Planner

Search our weather history database for the weather conditions in past years. The results will help you decide how hot, cold, wet, or windy it might be!

Date:

Astronomy

Jan. 23, 2013 Rise Set
Actual Time 7:53 AM CST 5:12 PM CST
Civil Twilight 7:20 AM CST 5:45 PM CST
Nautical Twilight 6:44 AM CST 6:22 PM CST
Astronomical Twilight 6:08 AM CST 6:57 PM CST
Moon 2:20 PM CST (1/23) 5:08 AM CST (1/23)
Length of Visible Light 10h 24m
Length of Day
9h 18m
Waxing Gibbous, 89% of the Moon is Illuminated
Jan 23
Waxing Gibbous
Jan 26
Full
Feb 3
Last Quarter
Feb 10
New
Feb 17
First Quarter

Hourly Weather History & Observations

Time (CST) Temp. Windchill Dew Point Humidity Pressure Visibility Wind Dir Wind Speed Gust Speed Precip Events Conditions
12:01 AM -0.4 °F - -5.8 °F 78% 30.14 in 10.0 mi SSW 2.3 mph - N/A   Overcast
12:21 AM -0.4 °F - -5.8 °F 78% 30.13 in 7.0 mi Calm Calm - N/A   Overcast
12:41 AM -0.4 °F -8.3 °F -5.8 °F 78% 30.12 in 7.0 mi SSW 3.5 mph - N/A   Overcast
1:21 AM -0.4 °F - -5.8 °F 78% 30.11 in 10.0 mi SSW 2.3 mph - N/A   Overcast
2:01 AM -0.4 °F -8.3 °F -4.0 °F 85% 30.10 in 10.0 mi SSW 3.5 mph - N/A   Overcast
7:41 AM 1.4 °F -9.9 °F -0.4 °F 92% 30.10 in 3.0 mi West 5.8 mph - N/A   Overcast
8:41 AM 1.4 °F -18.2 °F -2.2 °F 85% 30.12 in 4.0 mi WNW 16.1 mph - N/A   Mostly Cloudy
9:21 AM -0.4 °F -19.9 °F -5.8 °F 78% 30.15 in 10.0 mi NW 15.0 mph 21.9 mph N/A   Mostly Cloudy
9:59 AM -0.4 °F -22.3 °F -7.6 °F 72% 30.17 in 10.0 mi NW 19.6 mph 23.0 mph N/A   Clear
10:15 AM -0.4 °F -21.2 °F -9.4 °F 66% 30.19 in 10.0 mi NNW 17.3 mph 23.0 mph N/A   Clear
10:25 AM -0.4 °F -21.2 °F -9.4 °F 66% 30.20 in 7.0 mi NW 17.3 mph 25.3 mph N/A   Clear
10:41 AM -0.4 °F -21.7 °F -9.4 °F 66% 30.21 in 4.0 mi NNW 18.4 mph 28.8 mph N/A   Clear
11:05 AM -0.4 °F -21.2 °F -11.2 °F 60% 30.22 in 10.0 mi NW 17.3 mph 24.2 mph N/A   Clear
11:15 AM -0.4 °F -21.7 °F -11.2 °F 60% 30.22 in 10.0 mi NW 18.4 mph 23.0 mph N/A   Clear
11:34 AM -2.2 °F -26.7 °F -11.2 °F 66% - 5.0 mi NW 24.2 mph 28.8 mph N/A   Haze
11:53 AM -2.2 °F -24.1 °F -11.2 °F 66% 30.24 in 7.0 mi NW 18.4 mph 26.5 mph N/A   Clear
12:15 PM -2.2 °F -23.5 °F -13.0 °F 60% 30.25 in 10.0 mi NW 17.3 mph 25.3 mph N/A   Clear
12:35 PM -2.2 °F -25.7 °F -13.0 °F 60% 30.25 in 10.0 mi NW 21.9 mph 27.6 mph N/A   Clear
12:53 PM -4.0 °F -29.1 °F -14.8 °F 60% 30.25 in 7.0 mi NNW 24.2 mph 29.9 mph N/A   Clear
1:15 PM -4.0 °F -27.6 °F -14.8 °F 60% 30.27 in 7.0 mi NNW 20.7 mph 28.8 mph N/A   Clear
1:34 PM -4.0 °F -25.8 °F -16.6 °F 55% 30.28 in 10.0 mi NW 17.3 mph 26.5 mph N/A   Clear
1:53 PM -4.0 °F -25.8 °F -16.6 °F 55% 30.28 in 10.0 mi NNW 17.3 mph 25.3 mph N/A   Clear
2:15 PM -4.0 °F -27.0 °F -16.6 °F 55% 30.30 in 10.0 mi NNW 19.6 mph 26.5 mph N/A   Clear
2:35 PM -4.0 °F -25.8 °F -16.6 °F 55% 30.32 in 10.0 mi NNW 17.3 mph 21.9 mph N/A   Clear
2:53 PM -5.8 °F -27.5 °F -18.4 °F 55% 30.33 in 10.0 mi NNW 16.1 mph 19.6 mph N/A   Clear
3:15 PM -5.8 °F -28.2 °F -18.4 °F 55% 30.34 in 10.0 mi NNW 17.3 mph 23.0 mph N/A   Clear
3:35 PM -5.8 °F -26.8 °F -18.4 °F 55% 30.35 in 10.0 mi NW 15.0 mph 25.3 mph N/A   Clear
3:53 PM -5.8 °F -25.2 °F -18.4 °F 55% 30.37 in 10.0 mi NNW 12.7 mph 20.7 mph N/A   Clear
4:15 PM -7.6 °F -26.6 °F -18.4 °F 59% 30.37 in 10.0 mi NW 11.5 mph - N/A   Clear
4:34 PM -7.6 °F -28.3 °F -20.2 °F 54% 30.39 in 10.0 mi NW 13.8 mph 18.4 mph N/A   Clear
4:53 PM -7.6 °F -27.5 °F -18.4 °F 59% 30.42 in 10.0 mi NW 12.7 mph - N/A   Clear
5:15 PM -9.4 °F -27.9 °F -20.2 °F 59% 30.43 in 10.0 mi NW 10.4 mph - N/A   Clear
5:34 PM -9.4 °F -27.9 °F -20.2 °F 59% 30.44 in 10.0 mi WNW 10.4 mph - N/A   Clear
5:39 PM -11.2 °F -30.1 °F -20.2 °F 64% 30.45 in 10.0 mi WNW 10.4 mph - N/A   Clear
6:01 PM -11.2 °F -29.0 °F -20.2 °F 64% 30.45 in 10.0 mi NW 9.2 mph - N/A   Clear
6:41 PM -11.2 °F -24.8 °F -20.2 °F 64% 30.47 in 10.0 mi NNW 5.8 mph - N/A   Clear
7:01 PM -13.0 °F -27.0 °F -22.0 °F 64% 30.48 in 10.0 mi NW 5.8 mph - N/A   Clear
7:21 PM -14.8 °F -29.1 °F -23.8 °F 64% 30.49 in 10.0 mi NNW 5.8 mph - N/A   Clear
8:21 PM -14.8 °F -30.8 °F -23.8 °F 64% 30.52 in 10.0 mi North 6.9 mph - N/A   Clear
10:01 PM -16.6 °F -34.4 °F -23.8 °F 70% 30.54 in 10.0 mi North 8.1 mph - N/A   Clear
11:01 PM -16.6 °F -29.3 °F -23.8 °F 70% 30.57 in 10.0 mi North 4.6 mph - N/A   Clear
11:21 PM -16.6 °F -31.3 °F -23.8 °F 70% 30.56 in 10.0 mi North 5.8 mph - N/A   Clear
11:41 PM -16.6 °F -29.3 °F -23.8 °F 70% 30.56 in 10.0 mi North 4.6 mph - N/A   Clear